CW6014 Weather Reports


time (UTC)temp
C
wind
direction
speed
KPH
gust
KPH
rain 1hr
cm
rain 24hr
cm
rain mn
cm
humidity
%
barometer
mb
20211017153836 13 360 0.0 0.0 0.03 1.70 1.57 98 1001.3
20211017152839 13 360 0.0 0.0 0.03 1.70 1.57 97 1001.3
20211017151842 14 360 0.0 0.0 0.05 1.70 1.57 98 1001.2
20211017150828 14 360 0.0 0.0 0.10 1.70 1.57 97 1001.3
20211017145824 15 360 0.0 0.0 0.10 1.73 1.57 98 1001.3
20211017144827 15 360 0.0 0.0 0.10 1.73 1.57 98 1001.4
20211017143829 15 360 0.0 0.0 0.08 1.70 1.55 98 1001.5
20211017142836 15 360 0.0 0.0 0.08 1.70 1.55 98 1001.4
20211017141839 15 360 0.0 0.0 0.05 1.68 1.52 98 1001.3
20211017140841 15 360 0.0 0.0 0.00 1.63 1.47 98 1001.2
20211017135838 15 360 0.0 0.0 0.00 1.78 1.47 98 1001.1
20211017134824 15 360 0.0 0.0 0.00 1.78 1.47 98 1001.0
20211017133827 15 360 0.0 0.0 0.03 1.78 1.47 97 1001.1
20211017132829 15 360 0.0 0.0 0.05 1.78 1.47 97 1001.0
20211017131833 15 360 0.0 0.0 0.05 1.78 1.47 98 1000.9
20211017130838 15 360 0.0 0.0 0.05 1.78 1.47 98 1000.7
20211017125835 15 360 0.0 0.0 0.05 2.31 1.47 98 1001.3
20211017124837 14 360 0.0 0.0 0.05 2.31 1.47 98 1001.3
20211017123840 15 360 0.0 0.0 0.03 2.29 1.45 98 1001.6
20211017122827 15 360 0.0 0.0 0.00 2.26 1.42 98 1001.0
20211017121830 15 360 0.0 0.0 0.00 2.26 1.42 98 1000.4
20211017120832 15 360 0.0 0.0 0.00 2.26 1.42 98 1000.3
20211017115828 15 360 0.0 0.0 0.00 2.36 1.42 98 1000.9
20211017114831 15 360 0.0 0.0 0.00 2.36 1.42 98 1000.9
20211017113837 15 360 0.0 0.0 0.00 2.36 1.42 98 1001.0
20211017112840 15 360 0.0 0.0 0.00 2.36 1.42 98 1001.3
20211017111843 15 360 0.0 0.0 0.00 2.36 1.42 97 1001.1
20211017110824 15 360 0.0 0.0 0.00 2.36 1.42 97 1000.6
20211017105825 15 360 0.0 0.0 0.10 2.39 1.42 97 1000.4
20211017104828 14 360 0.0 0.0 0.28 2.39 1.42 97 1000.4
20211017103831 14 360 0.0 0.0 0.46 2.39 1.42 97 1000.5
20211017102833 14 360 0.0 0.0 0.58 2.39 1.42 97 1000.7
20211017101840 14 360 0.0 0.0 0.64 2.39 1.42 97 1001.4
20211017100842 14 360 0.0 0.0 0.74 2.39 1.42 97 1000.9
20211017095839 15 360 0.0 0.0 0.66 2.29 1.30 97 1000.7
20211017094841 15 360 0.0 0.0 0.56 2.13 1.14 97 1001.6
20211017093828 15 360 0.0 0.0 0.41 1.96 0.97 98 1000.8
20211017092830 16 360 0.0 0.0 0.28 1.80 0.81 98 1000.4
20211017091833 16 360 0.0 0.0 0.25 1.75 0.76 97 1000.3
20211017090834 16 360 0.0 0.0 0.18 1.68 0.69 97 1000.4
20211017085835 16 360 0.0 0.0 0.15 1.63 0.64 97 1000.6
20211017084837 16 360 0.0 0.0 0.13 1.57 0.58 97 1000.7
20211017083839 16 360 0.0 0.0 0.18 1.55 0.56 97 1000.6
20211017082842 16 360 0.0 0.0 0.18 1.52 0.53 97 1001.0
20211017081828 16 360 0.0 0.0 0.33 1.50 0.51 97 1001.1
20211017080832 16 360 0.0 0.0 0.41 1.50 0.51 97 1001.2
20211017075828 16 360 0.0 0.0 0.41 1.47 0.48 97 1001.2
20211017074831 16 360 0.0 0.0 0.46 1.45 0.46 97 1001.1
20211017073833 16 360 0.0 0.0 0.38 1.37 0.38 97 1000.9
20211017072840 16 360 0.0 0.0 0.33 1.32 0.33 97 1001.0
20211017071843 16 360 0.0 0.0 0.18 1.17 0.18 97 1001.0
20211017070824 16 360 0.0 0.0 0.08 1.07 0.08 96 1001.3
20211017065841 16 360 0.0 0.0 0.08 1.07 0.08 96 1001.2
20211017064828 17 360 0.0 0.0 0.00 0.99 0.00 94 1001.4
20211017063831 17 360 0.0 0.0 0.00 0.99 0.00 94 1001.5
20211017062833 17 360 0.0 0.0 0.00 0.99 0.00 94 1001.8
20211017061836 17 360 0.0 0.0 0.00 0.99 0.00 94 1002.1
20211017060842 17 360 0.0 0.0 0.00 0.99 0.00 94 1002.2
20211017055838 17 360 0.0 0.0 0.00 0.99 0.00 94 1002.5
20211017054841 17 360 0.0 0.0 0.00 0.99 0.00 94 1002.7
20211017053824 17 360 0.0 0.0 0.00 0.99 0.00 94 1003.1
20211017052831 17 360 0.0 0.0 0.00 0.99 0.00 94 1003.3
20211017051833 17 360 0.0 0.0 0.00 0.99 0.00 94 1003.3
20211017050835 17 360 0.0 0.0 0.00 0.99 0.00 94 1003.6
20211017045832 17 360 0.0 0.0 0.00 0.99 0.99 94 1003.6
20211017044839 17 360 0.0 0.0 0.00 0.99 0.99 95 1003.7
20211017043841 17 360 0.0 0.0 0.00 0.99 0.99 95 1003.8
20211017042824 17 360 0.0 0.0 0.00 0.99 0.99 95 1004.2
20211017041827 16 360 0.0 0.0 0.00 0.99 0.99 95 1004.2
20211017040832 16 360 0.0 0.0 0.00 0.99 0.99 95 1004.5
20211017035829 16 360 0.0 0.0 0.00 0.99 0.99 95 1004.6
20211017034832 17 360 0.0 0.0 0.00 0.99 0.99 95 1004.8
20211017033834 16 360 0.0 0.0 0.00 0.99 0.99 95 1004.8
20211017032836 17 360 0.0 0.0 0.00 0.99 0.99 95 1005.0
20211017031843 16 360 0.0 0.0 0.00 0.99 0.99 95 1005.2
20211017030824 17 360 0.0 0.0 0.00 0.99 0.99 95 1005.4
20211017025841 17 360 0.0 0.0 0.00 0.99 0.99 94 1005.5
20211017024824 17 360 0.0 0.0 0.00 0.99 0.99 95 1005.6
20211017023831 17 360 0.0 0.0 0.00 0.99 0.99 95 1005.8
20211017022833 17 360 0.0 0.0 0.00 0.99 0.99 95 1005.9
20211017021836 17 360 0.0 0.0 0.00 0.99 0.99 94 1006.2
20211017020839 17 360 0.0 0.0 0.00 0.99 0.99 95 1006.2
20211017015839 17 360 0.0 0.0 0.00 0.99 0.99 95 1006.3
20211017014841 17 360 0.0 0.0 0.00 0.99 0.99 94 1006.3
20211017013824 17 360 0.0 0.0 0.00 0.99 0.99 94 1006.3
20211017012827 16 360 0.0 0.0 0.00 0.99 0.99 95 1006.5
20211017011833 16 360 0.0 0.0 0.00 0.99 0.99 95 1006.6
20211017010835 16 360 0.0 0.0 0.00 0.99 0.99 95 1006.6
20211017005831 16 360 0.0 0.0 0.00 0.99 0.99 95 1006.6
20211017004835 16 360 0.0 0.0 0.00 0.99 0.99 95 1006.6
20211017003841 16 360 0.0 0.0 0.00 0.99 0.99 95 1006.6
20211017002823 16 360 0.0 0.0 0.00 0.99 0.99 95 1006.7
20211017001826 16 360 0.0 0.0 0.00 0.99 0.99 95 1006.7
20211017000829 16 360 0.0 0.0 0.00 0.99 0.99 95 1006.8
20211016235829 16 360 0.0 0.0 0.00 0.99 0.99 95 1006.8
20211016234832 16 360 0.0 0.0 0.00 0.99 0.99 95 1006.8
20211016233835 16 360 0.0 0.0 0.00 0.99 0.99 95 1006.9
20211016232837 16 360 0.0 0.0 0.00 0.99 0.99 96 1007.1
20211016231823 16 360 0.0 0.0 0.00 0.99 0.99 96 1007.1
20211016230825 16 360 0.0 0.0 0.00 0.99 0.99 96 1007.1
20211016225842 16 360 0.0 0.0 0.00 0.99 0.99 96 1007.2
20211016224825 16 360 0.0 0.0 0.00 0.99 0.99 96 1007.2
20211016223827 16 360 0.0 0.0 0.00 0.99 0.99 96 1007.2
20211016222833 16 360 0.0 0.0 0.00 0.99 0.99 96 1007.3
20211016221836 16 360 0.0 0.0 0.00 0.99 0.99 96 1007.3
20211016220838 16 360 0.0 0.0 0.00 0.99 0.99 96 1007.2
20211016215834 16 360 0.0 0.0 0.00 0.99 0.99 96 1007.3
20211016214841 16 360 0.0 0.0 0.00 0.99 0.99 96 1007.3
20211016213824 16 360 0.0 0.0 0.00 0.99 0.99 96 1007.3
20211016212825 16 360 0.0 0.0 0.00 0.99 0.99 95 1007.3
20211016211829 16 360 0.0 0.0 0.00 0.99 0.99 96 1007.3
20211016210835 16 360 0.0 0.0 0.00 0.99 0.99 95 1007.3
20211016205831 16 360 0.0 0.0 0.00 0.99 0.99 96 1007.5
20211016204834 16 360 0.0 0.0 0.00 0.99 0.99 95 1007.7
20211016203837 16 360 0.0 0.0 0.00 0.99 0.99 96 1007.8
20211016202824 16 360 0.0 0.0 0.00 0.99 0.99 95 1007.7
20211016201826 16 360 0.0 0.0 0.00 0.99 0.99 96 1007.8
20211016200828 16 360 0.0 0.0 0.00 0.99 0.99 96 1008.0
20211016195824 16 360 0.0 0.0 0.00 0.99 0.99 96 1008.0
20211016194830 16 360 0.0 0.0 0.00 0.99 0.99 96 1008.1
20211016193833 16 360 0.0 0.0 0.00 0.99 0.99 96 1008.2
20211016192835 16 360 0.0 0.0 0.00 0.99 0.99 96 1008.2
20211016191838 16 360 0.0 0.0 0.00 0.99 0.99 96 1008.3
20211016190839 16 360 0.0 0.0 0.00 0.99 0.99 96 1008.3
20211016185839 16 360 0.0 0.0 0.00 0.99 0.99 97 1008.3
20211016184842 16 360 0.0 0.0 0.00 0.99 0.99 96 1008.3
20211016183824 16 360 0.0 0.0 0.00 0.99 0.99 97 1008.3
20211016182826 16 360 0.0 0.0 0.00 0.99 0.99 97 1008.3
20211016181832 16 360 0.0 0.0 0.00 0.99 0.99 97 1008.4
20211016180834 16 360 0.0 0.0 0.00 0.99 0.99 97 1008.5
20211016175831 16 360 0.0 0.0 0.00 0.99 0.99 97 1008.5
20211016174833 16 360 0.0 0.0 0.00 0.99 0.99 97 1008.5
20211016173840 16 360 0.0 0.0 0.00 0.99 0.99 97 1008.5
20211016172843 16 360 0.0 0.0 0.00 0.99 0.99 97 1008.7
20211016171825 16 360 0.0 0.0 0.00 0.99 0.99 97 1008.8
20211016170827 16 360 0.0 0.0 0.00 0.99 0.99 97 1009.0
20211016165826 16 360 0.0 0.0 0.00 0.99 0.99 97 1009.1
20211016164829 16 360 0.0 0.0 0.00 0.99 0.99 97 1009.1
20211016163832 16 360 0.0 0.0 0.00 0.99 0.99 97 1009.4
20211016162835 16 360 0.0 0.0 0.03 0.99 0.99 97 1009.5
20211016161842 15 360 0.0 0.0 0.05 0.99 0.99 98 1009.7
20211016160843 15 360 0.0 0.0 0.08 0.99 0.99 98 1010.0
20211016155840 15 360 0.0 0.0 0.13 0.99 0.99 97 1010.4
20211016154843 15 360 0.0 0.0 0.13 0.99 0.99 97 1010.4